Simultaneous Nadir Overpasses (SNOs) Predictions

Prediction of SNOs between LANDSAT-8 and NOAA-19 Satellite Orbit:

Table of predicted SNOs for the next 14.0 days since TLE Epoch: 12/9/2023
Index Date (LANDSAT-8) Time (LANDSAT-8) Lat,Lon (LANDSAT-8) SZA (LANDSAT-8 ) Date (NOAA-19) Time (NOAA-19) Lat,Lon (NOAA-19) SZA (NOAA-19 ) Distance(km) Time Diff (sec)
1 12/11/2023 03:24:31 -80.89, -14.58 74.33 12/11/2023 03:24:12 -80.89, -14.69 74.35 1.84 19
2 12/11/2023 04:13:51 81.04, 155.24 106.01 12/11/2023 04:15:05 80.94, 155.37 105.97 12.26 74
3 12/13/2023 09:47:43 -80.89,-110.29 74.17 12/13/2023 09:47:25 -80.89,-110.21 74.17 1.40 18
4 12/13/2023 10:36:52 81.30, 63.57 106.76 12/13/2023 10:38:03 80.97, 65.28 106.73 46.98 71
5 12/15/2023 16:10:55 -80.89, 153.90 74.06 12/15/2023 16:10:39 -80.89, 153.84 74.08 1.19 16
6 12/17/2023 22:34:07 -80.88, 58.01 74.01 12/17/2023 22:33:53 -80.88, 57.84 74.03 2.89 14
7 12/20/2023 04:57:17 -80.90, -37.64 73.96 12/20/2023 04:57:04 -80.89, -37.47 73.95 3.01 13



Historial Predications of SNOs between LANDSAT-8 and NOAA-19
